Home   Weather   Stuhr   Past weeks
Flag for Germany

Past Weather in Stuhr, Lower Saxony, Germany — Yesterday and Last 2 Weeks

Now
66 °F

Passing clouds.


Feels Like: 66 °F
Forecast: 65 / 53 °F
Wind: 9 mph from Southeast

Location: Bremen Airport

Current Time: Sep 22, 2019 at 12:13:46 pm

Latest Report: Sep 22, 2019 at 11:20 am


Visibility: N/A

Pressure: 29.86 "Hg

Humidity: 49%

Dew Point: 46 °F

Location of StuhrLocation

Past Weather in Stuhr — Graph

°F

Stuhr Temperature Yesterday

Maximum temperature yesterday: 72 °F (at 3:50 pm)
Minimum temperature yesterday: 41 °F (at 5:50 am)
Average temperature yesterday: 57 °F

High & Low Weather Summary for the Past Weeks

 TemperatureHumidityPressure
High72 °F (Sep 12, 3:50 pm)100% (Sep 7, 8:50 pm)30.57 "Hg (Sep 7, 8:50 pm)
Low39 °F (Sep 19, 7:20 am)36% (Sep 21, 3:50 pm)29.89 "Hg (Sep 9, 5:50 pm)
Average56 °F78%30.18 "Hg
* Reported Sep 7 10:20 am — Sep 22 10:50 am, Stuhr. Weather by CustomWeather, © 2019

Note: Actual official high and low records may vary slightly from our data, if they occured in-between our weather recording intervals... More about our weather records

Advertising

Stuhr Weather History for the Previous 24 Hours

Scroll right to see more
 ConditionsComfort  
Time TempWeatherWind HumidityBarometerVisibility
10:50 am
Sun, Sep 22
64 °FPassing clouds.8 mph56%29.89 "HgN/A
10:20 am61 °FPassing clouds.6 mph63%29.89 "HgN/A
9:50 am59 °FPassing clouds.7 mph63%29.89 "HgN/A
9:20 am55 °FPassing clouds.7 mph72%29.92 "HgN/A
8:50 am54 °FSunny.8 mph72%29.92 "Hg10 mi
8:20 am52 °FSunny.7 mph77%29.92 "Hg10 mi
7:50 am50 °FSunny.2 mph76%29.92 "Hg10 mi
7:20 am48 °FSunny.2 mph82%29.92 "Hg10 mi
6:50 am48 °FClear.6 mph82%29.92 "Hg10 mi
6:20 am50 °FPassing clouds.3 mph76%29.92 "HgN/A
5:50 am48 °FClear.2 mph82%29.95 "Hg10 mi
5:20 am50 °FPassing clouds.3 mph76%29.95 "HgN/A
4:50 am52 °FPassing clouds.3 mph77%29.95 "HgN/A
4:20 am54 °FPassing clouds.3 mph72%29.95 "HgN/A
3:50 am54 °FPassing clouds.5 mph72%29.95 "HgN/A
3:20 am54 °FPassing clouds.7 mph72%29.95 "HgN/A
2:50 am54 °FClear.5 mph72%29.98 "Hg10 mi
2:20 am52 °FPassing clouds.3 mph77%29.98 "HgN/A
1:50 am52 °FClear.2 mph77%29.98 "Hg10 mi
1:20 am55 °FClear.6 mph67%29.98 "Hg10 mi
12:50 am57 °FClear.7 mph63%29.98 "Hg10 mi
12:20 am57 °FClear.8 mph67%30.01 "Hg10 mi
11:50 pm
Sat, Sep 21
57 °FClear.8 mph63%30.01 "Hg10 mi
11:20 pm55 °FClear.7 mph72%30.01 "Hg10 mi
10:50 pm57 °FClear.7 mph67%30.01 "Hg10 mi
10:20 pm59 °FClear.7 mph63%30.01 "Hg10 mi
9:50 pm61 °FClear.7 mph59%30.04 "Hg10 mi
9:20 pm59 °FClear.6 mph63%30.04 "Hg10 mi
8:50 pm63 °FClear.6 mph56%30.04 "Hg10 mi
8:20 pm63 °FClear.7 mph56%30.04 "Hg10 mi
7:50 pm64 °FClear.6 mph52%30.04 "Hg10 mi
7:20 pm64 °FSunny.7 mph52%30.04 "Hg10 mi
6:50 pm70 °FSunny.6 mph43%30.07 "Hg10 mi
6:20 pm70 °FSunny.7 mph40%30.07 "Hg10 mi
5:50 pm72 °FPassing clouds.8 mph38%30.07 "HgN/A
5:20 pm72 °FPassing clouds.6 mph38%30.07 "HgN/A
4:50 pm72 °FPassing clouds.8 mph36%30.09 "HgN/A
4:20 pm72 °FPassing clouds.8 mph36%30.09 "HgN/A
3:50 pm72 °FPassing clouds.7 mph36%30.09 "HgN/A
3:20 pm70 °FPassing clouds.7 mph40%30.12 "HgN/A
2:50 pm70 °FPassing clouds.8 mph38%30.12 "HgN/A
2:20 pm70 °FPassing clouds.6 mph40%30.15 "HgN/A
1:50 pm68 °FPassing clouds.7 mph43%30.15 "HgN/A
1:20 pm68 °FPassing clouds.7 mph43%30.15 "HgN/A
12:50 pm66 °FPassing clouds.6 mph46%30.18 "HgN/A
12:20 pm64 °FPassing clouds.6 mph49%30.18 "HgN/A
Weather by CustomWeather, © 2019

See weather overview